Wind_Speed
27 28 28 29 31 34 34 32 30 28 29 30 30 31 31 31 29 28 27 25 23 22 21 20 19 18 17 16 15 14 13 12 11 10 11 11 11 10 10 10 10 9 9 9 9 9 8 8 8
28 28 29 30 31 33 33 32 32 30 30 31 32 32 33 33 32 30 28 27 25 24 23 22 21 20 19 18 16 15 15 13 12 11 11 11 11 11 11 11 10 10 10 9 9 9 9 9 9
29 29 30 31 31 32 32 32 32 32 32 32 33 33 34 34 33 32 31 29 27 27 25 24 23 22 21 20 18 17 16 15 14 12 12 12 12 12 12 11 11 10 10 10 10 10 10 10 10
27 29 30 31 31 31 32 32 32 32 33 33 33 34 34 34 34 33 32 32 30 29 28 26 25 24 23 21 20 19 18 16 15 14 14 13 13 13 13 13 12 12 11 11 11 11 11 11 11
26 27 29 30 30 30 30 32 32 32 33 33 34 34 34 34 34 34 34 34 33 31 31 29 28 26 25 23 22 21 20 18 17 16 15 14 14 14 14 14 14 14 13 13 13 13 13 12 12
25 27 28 29 28 29 30 31 32 32 33 34 35 35 35 35 35 35 35 35 35 34 33 31 30 29 27 25 24 22 22 20 19 18 17 16 15 15 15 15 15 15 14 14 14 14 14 14 14
25 25 27 27 27 28 30 31 31 31 32 34 35 36 35 36 36 36 36 37 36 35 34 34 32 31 29 27 26 24 23 22 20 19 18 18 17 17 17 17 16 16 15 15 15 15 15 15 15
25 26 26 26 27 28 29 31 31 31 31 32 34 36 35 36 37 37 37 37 37 36 36 35 34 32 31 29 28 26 25 24 22 21 20 19 19 18 18 18 18 18 17 17 16 16 16 16 16
23 25 25 25 27 27 29 31 30 31 30 31 33 35 35 36 38 38 38 38 38 37 36 36 34 33 32 30 30 28 26 25 24 23 22 21 20 20 19 19 19 19 19 19 18 18 18 18 18
22 24 24 25 26 27 28 30 30 30 31 31 32 33 34 36 37 38 38 37 37 37 36 36 36 35 33 32 30 29 28 26 26 26 24 23 22 22 21 21 21 21 21 20 20 20 20 20 20
22 23 23 23 25 26 27 29 29 30 30 30 32 33 33 34 35 37 37 37 37 36 36 36 36 36 35 34 32 30 29 28 27 27 27 25 24 23 23 22 22 22 22 22 22 22 22 22 21
22 22 23 23 24 25 26 27 28 27 27 28 30 32 34 34 34 34 36 37 37 37 37 37 36 36 35 34 33 32 31 29 28 27 27 26 25 25 25 24 24 23 23 23 23 23 23 23 23
21 21 22 22 23 23 24 25 26 26 26 27 28 30 32 33 33 34 35 37 38 37 37 37 37 35 35 35 34 32 32 31 29 28 28 28 27 26 25 25 25 25 24 24 25 25 25 25 25
19 20 20 21 21 22 22 24 25 24 26 26 26 28 30 31 32 33 34 36 38 38 37 36 36 36 35 34 34 34 33 32 30 30 29 29 29 28 27 27 26 26 26 26 26 26 26 26 26
18 19 19 18 18 19 21 21 22 22 24 24 24 26 27 28 30 31 33 36 38 38 38 37 36 36 34 33 34 34 33 33 32 32 31 30 30 29 28 28 28 28 27 27 27 28 28 28 27
18 18 17 16 16 17 19 19 19 21 23 23 23 24 26 27 29 30 33 35 38 39 38 37 37 35 35 34 34 35 34 33 33 33 33 32 31 30 29 29 29 29 29 28 28 28 29 29 29
18 17 16 15 15 16 17 18 18 19 21 22 22 24 26 27 28 29 32 34 36 37 36 36 36 35 35 34 34 35 35 34 34 34 34 34 33 32 31 30 30 30 30 30 29 30 29 30 30
17 17 15 14 14 14 16 17 17 18 20 21 22 23 25 27 27 29 31 33 34 35 35 35 35 34 34 34 35 34 34 34 33 34 35 35 35 34 33 31 31 31 31 31 31 31 31 31 31
17 16 15 15 15 14 14 14 15 17 19 20 20 22 24 26 27 29 30 32 33 35 35 34 35 35 34 34 34 34 34 33 34 34 34 35 35 35 35 33 32 31 31 32 33 33 33 33 33
17 17 16 16 15 16 15 14 14 16 18 19 20 21 22 24 26 27 30 30 30 33 34 32 34 33 33 34 32 32 33 34 35 35 33 33 33 34 35 36 34 33 33 34 34 34 34 35 35
16 17 16 16 16 16 17 15 14 15 17 18 19 19 20 23 24 27 29 29 29 29 31 31 31 33 33 33 32 32 32 32 33 34 34 34 34 34 33 34 35 35 36 35 34 35 35 36 36
16 16 16 16 16 16 17 17 13 14 15 17 17 19 20 21 22 26 29 28 28 27 29 29 28 31 31 32 33 33 33 33 33 33 34 35 34 33 33 34 34 34 34 35 35 35 36 37 37
16 16 16 16 17 17 17 17 13 14 14 15 16 17 19 20 21 23 26 28 29 28 28 29 29 29 31 32 31 32 32 33 34 34 34 34 34 33 33 33 34 34 35 36 37 37 37 38 38
16 16 16 16 17 16 16 17 14 14 14 14 15 17 19 21 22 23 24 26 29 28 27 29 28 28 30 32 33 32 32 33 34 34 34 33 34 34 35 35 36 36 37 38 39 39 39 39 40
17 17 17 18 17 17 16 16 15 15 14 15 16 17 19 20 22 23 24 25 27 27 26 27 28 29 29 30 31 32 32 32 33 33 33 34 35 35 37 37 38 38 39 40 40 41 41 41 41
17 17 18 19 19 19 17 16 15 15 15 15 16 17 18 20 21 23 25 26 27 26 27 27 28 28 29 30 31 31 31 31 32 32 33 34 34 36 37 38 38 39 39 41 41 42 42 43 43
18 18 18 19 20 20 18 17 16 16 16 15 15 17 18 20 21 22 24 26 27 27 28 28 28 28 29 30 30 30 31 32 32 33 33 34 35 37 38 38 38 39 40 40 41 43 43 44 44
19 19 19 19 20 20 19 18 18 16 16 16 16 17 18 19 20 21 24 26 27 28 30 29 30 30 29 30 30 30 31 33 34 34 34 35 36 38 39 40 40 40 40 41 41 43 43 44 44
20 20 21 21 21 22 21 18 18 17 17 17 17 18 19 19 20 21 23 24 25 27 28 29 29 30 31 31 31 31 32 33 35 35 36 37 37 38 39 40 40 41 42 42 43 43 44 45 45
21 21 22 23 23 23 23 19 19 18 18 18 19 19 21 22 22 23 23 23 25 27 27 29 30 31 32 33 33 34 35 36 36 37 37 37 38 39 40 41 41 41 42 43 44 45 45 45 46
Wind_Direction
263 261 260 258 257 256 256 257 257 254 251 248 245 243 241 239 239 239 238 236 234 234 235 236 236 236 235 236 240 243 244 246 249 251 252 252 250 251 253 255 260 262 265 266 268 271 275 277 280
263 261 259 258 257 258 256 256 255 253 252 249 245 243 241 240 239 239 238 235 233 234 235 237 237 236 236 237 240 244 245 247 249 251 252 252 251 251 253 256 260 262 264 265 267 271 274 276 279
263 260 259 257 257 258 257 255 254 252 251 249 246 243 241 240 239 238 238 237 234 234 235 237 236 236 237 238 240 243 246 247 249 251 253 253 252 252 253 256 259 261 262 263 266 271 274 275 278
264 260 259 258 258 257 257 255 254 253 250 248 246 243 242 241 240 238 237 236 235 234 234 235 235 235 236 238 240 241 244 247 249 250 252 253 252 252 253 254 258 259 261 263 265 269 273 274 276
265 262 260 259 258 257 257 255 254 252 250 247 246 244 243 241 240 239 237 236 235 234 235 236 234 234 234 236 238 241 243 245 249 249 250 251 252 253 253 254 257 258 259 262 265 268 271 272 274
268 265 263 263 260 258 256 255 255 253 251 248 246 245 243 242 240 239 237 236 235 235 235 235 234 234 234 235 238 241 242 245 247 250 249 250 251 252 252 254 257 257 258 261 265 267 269 270 274
270 267 266 265 262 257 256 255 254 254 252 249 248 246 243 241 240 239 237 236 235 235 235 234 234 233 234 234 236 240 242 244 246 247 250 250 249 251 252 254 255 255 258 261 264 267 268 271 274
270 269 271 268 264 258 257 256 254 253 252 250 249 247 244 241 240 238 237 236 235 235 234 233 233 233 233 234 236 239 242 243 244 246 248 250 249 249 251 253 255 255 258 261 263 265 269 273 275
273 274 273 271 267 262 257 255 253 252 252 251 250 248 245 241 239 237 237 237 235 235 233 232 232 232 232 234 236 239 241 243 243 244 245 247 249 249 251 253 255 256 258 261 262 264 269 272 274
276 276 277 276 271 264 259 255 252 252 251 252 250 246 245 242 240 237 236 236 235 233 232 232 233 232 232 233 235 238 241 243 244 243 245 245 247 250 252 253 255 258 259 261 263 264 267 271 273
279 279 280 277 273 267 262 257 254 253 252 251 250 245 244 242 240 238 235 234 233 232 232 232 233 233 233 233 234 238 240 242 243 243 245 246 245 249 252 256 256 257 259 261 264 264 266 269 272
282 281 281 278 274 269 264 258 255 254 252 251 249 244 242 240 238 237 234 232 231 231 231 231 232 233 232 233 234 236 239 241 242 243 243 246 247 248 251 256 258 258 260 262 263 264 267 269 271
286 284 283 281 275 271 266 260 258 254 252 250 248 244 241 238 236 236 233 231 229 230 230 231 232 230 231 232 233 235 239 240 242 243 244 246 248 251 252 256 258 258 260 262 263 264 266 268 270
289 286 283 280 277 272 269 266 259 254 250 250 248 244 241 238 235 235 231 230 229 229 227 228 229 229 232 233 233 235 238 240 242 243 245 247 250 252 254 254 257 258 260 262 264 264 266 268 270
292 288 285 282 279 274 270 266 260 253 251 249 246 244 240 237 234 233 231 229 228 228 228 228 229 229 231 233 234 235 238 241 243 244 245 247 250 251 254 254 256 258 259 261 265 265 265 267 269
294 290 287 284 280 275 272 270 265 257 251 248 247 244 237 234 233 232 231 228 226 225 226 229 228 229 231 233 235 236 239 242 245 246 245 247 250 252 254 255 256 257 259 261 264 267 266 267 270
296 294 289 285 282 279 275 272 266 260 253 249 248 245 238 234 233 232 231 227 226 225 227 228 227 230 231 233 234 236 240 242 246 248 247 247 250 253 254 255 257 258 260 261 264 267 268 269 270
300 296 292 291 287 285 280 275 268 261 254 252 250 246 240 235 236 234 231 228 227 227 227 228 227 229 231 233 235 237 239 242 244 247 249 249 250 252 255 256 257 258 260 262 263 266 268 271 271
304 301 296 293 288 285 284 279 271 263 258 253 252 248 241 237 236 234 230 227 226 226 228 227 227 230 232 235 237 239 240 241 245 248 251 251 251 252 255 257 258 259 260 262 265 266 268 270 272
307 305 304 299 293 286 285 283 276 264 261 257 255 250 243 236 237 236 232 229 226 226 229 229 231 234 236 237 238 239 241 244 248 251 254 254 254 255 257 258 260 261 263 264 265 267 268 270 272
307 307 307 303 298 291 289 286 280 267 262 262 257 249 242 237 237 235 232 230 230 229 231 234 236 234 237 237 239 240 243 246 249 251 254 257 258 259 260 260 262 264 265 266 267 269 270 270 272
305 305 304 305 303 299 295 293 283 276 266 264 261 250 245 245 242 239 235 233 231 230 234 237 237 235 236 236 238 241 244 247 250 252 254 256 258 259 260 262 263 264 265 266 268 269 270 270 272
305 303 302 303 307 305 301 295 287 281 273 268 263 254 248 245 242 242 238 236 234 235 240 240 238 236 236 236 239 243 244 247 250 252 253 255 256 257 258 261 261 263 265 267 268 270 272 273 273
303 304 304 305 306 306 304 297 294 286 281 273 266 256 248 245 243 243 240 238 237 238 244 245 239 237 238 238 241 245 247 248 251 253 255 255 255 255 257 259 261 263 265 268 269 271 272 274 274
301 304 305 307 306 307 306 300 298 292 287 280 270 257 250 247 246 245 242 241 241 241 245 243 241 241 241 241 243 247 249 250 250 252 256 257 257 257 258 260 262 264 265 267 270 271 272 274 274
298 301 303 306 306 308 308 304 302 295 291 283 269 261 256 251 250 250 247 242 243 244 247 245 245 245 244 245 246 248 250 252 253 255 258 259 260 259 260 262 264 266 267 269 270 272 273 274 275
293 296 300 301 302 305 307 305 303 297 294 285 272 265 261 256 254 254 249 246 247 249 250 246 245 247 246 246 247 249 251 253 255 258 259 261 263 263 263 264 266 268 269 271 271 272 273 274 275
288 291 294 297 299 301 304 306 306 302 297 287 277 270 264 261 260 258 254 252 252 253 252 249 248 249 248 248 248 251 253 254 257 259 261 263 265 266 266 267 267 269 271 272 273 274 275 275 275
285 287 289 291 293 296 299 302 304 302 299 293 284 276 267 265 264 262 259 259 257 256 254 253 252 251 250 251 252 254 256 257 260 262 263 266 266 266 266 267 269 270 272 273 274 274 275 275 275
280 282 285 287 290 292 293 296 297 298 295 292 287 279 272 268 266 266 266 264 262 259 258 257 256 255 254 254 256 258 259 261 263 264 266 268 268 267 267 268 270 273 274 275 275 274 274 275 275
Height
5798 5798 5799 5800 5801 5802 5803 5806 5809 5812 5813 5815 5818 5819 5822 5825 5828 5833 5833 5834 5836 5838 5840 5841 5843 5844 5845 5847 5848 5849 5850 5851 5852 5853 5854 5855 5856 5857 5858 5859 5860 5860 5861 5862 5863 5863 5864 5864 5865
5791 5792 5793 5793 5793 5794 5797 5800 5802 5805 5806 5808 5810 5813 5815 5818 5822 5825 5827 5829 5832 5834 5835 5837 5839 5841 5842 5843 5845 5846 5847 5848 5849 5850 5851 5852 5853 5854 5855 5856 5857 5858 5859 5860 5861 5861 5862 5862 5863
5784 5784 5785 5785 5786 5788 5791 5793 5795 5797 5799 5801 5803 5806 5809 5812 5815 5819 5822 5824 5827 5829 5831 5833 5835 5837 5838 5840 5841 5843 5844 5845 5846 5847 5848 5849 5850 5852 5853 5854 5855 5856 5857 5858 5858 5859 5860 5860 5860
5776 5777 5777 5778 5779 5782 5783 5785 5787 5789 5791 5793 5796 5799 5802 5806 5809 5812 5816 5818 5821 5823 5825 5827 5829 5831 5834 5836 5837 5839 5841 5842 5843 5844 5845 5846 5847 5849 5850 5851 5852 5853 5854 5855 5856 5857 5857 5858 5858
5769 5769 5769 5770 5772 5775 5776 5777 5778 5780 5783 5786 5788 5791 5795 5799 5802 5805 5809 5812 5815 5817 5819 5822 5824 5826 5828 5831 5833 5835 5836 5838 5839 5840 5842 5843 5844 5846 5847 5848 5849 5850 5851 5852 5853 5854 5854 5855 5855
5762 5762 5763 5763 5766 5767 5768 5769 5770 5772 5775 5778 5780 5784 5788 5791 5794 5798 5801 5804 5807 5810 5813 5816 5818 5820 5823 5826 5828 5830 5832 5834 5835 5836 5838 5839 5841 5842 5843 5845 5846 5847 5848 5849 5850 5851 5851 5852 5852
5756 5755 5756 5757 5758 5759 5760 5761 5762 5765 5767 5770 5772 5776 5780 5783 5787 5790 5793 5797 5800 5803 5806 5809 5811 5814 5817 5820 5823 5825 5827 5829 5831 5832 5834 5835 5837 5838 5840 5841 5842 5844 5845 5846 5847 5847 5848 5848 5849
5749 5749 5749 5749 5750 5752 5753 5753 5754 5757 5760 5762 5764 5767 5772 5776 5778 5782 5785 5788 5792 5795 5799 5802 5805 5808 5811 5814 5817 5819 5822 5824 5826 5828 5829 5831 5833 5834 5836 5837 5838 5840 5841 5842 5843 5844 5844 5845 5845
5742 5743 5742 5743 5743 5744 5745 5745 5747 5749 5751 5754 5756 5759 5763 5766 5769 5773 5777 5780 5784 5788 5791 5795 5798 5801 5804 5807 5811 5813 5816 5819 5821 5823 5824 5826 5828 5830 5831 5833 5834 5835 5837 5838 5839 5840 5840 5841 5841
5736 5736 5736 5736 5736 5736 5737 5737 5738 5741 5743 5746 5748 5750 5754 5757 5761 5765 5768 5772 5777 5780 5784 5788 5791 5795 5798 5801 5804 5807 5810 5813 5815 5817 5819 5821 5823 5825 5826 5828 5829 5831 5832 5833 5834 5835 5836 5836 5837
5730 5730 5729 5728 5728 5728 5728 5729 5730 5732 5735 5738 5740 5742 5745 5749 5752 5756 5760 5764 5768 5773 5777 5780 5784 5788 5791 5795 5798 5801 5804 5807 5810 5812 5814 5816 5817 5819 5821 5823 5824 5826 5827 5828 5829 5830 5831 5832 5832
5725 5724 5722 5722 5721 5721 5721 5722 5723 5725 5728 5729 5731 5733 5736 5740 5744 5748 5752 5756 5760 5765 5769 5773 5777 5780 5784 5788 5791 5795 5798 5801 5803 5806 5808 5810 5812 5814 5816 5817 5819 5821 5822 5823 5824 5825 5825 5826 5827
5720 5718 5716 5715 5714 5714 5714 5715 5716 5718 5720 5721 5723 5725 5728 5731 5735 5740 5744 5748 5753 5757 5761 5765 5769 5773 5777 5781 5785 5789 5792 5795 5798 5800 5802 5805 5806 5808 5810 5812 5813 5815 5816 5817 5818 5819 5820 5820 5821
5715 5713 5711 5710 5708 5708 5709 5709 5709 5712 5712 5714 5716 5718 5720 5724 5728 5731 5736 5740 5745 5749 5754 5758 5761 5766 5770 5775 5779 5782 5786 5788 5792 5794 5796 5799 5801 5802 5803 5806 5807 5809 5810 5811 5812 5813 5814 5814 5815
5710 5709 5707 5705 5704 5703 5704 5704 5704 5705 5705 5708 5710 5712 5714 5717 5720 5724 5728 5733 5738 5742 5747 5751 5755 5759 5764 5768 5772 5776 5780 5783 5785 5788 5790 5792 5794 5796 5797 5799 5801 5803 5804 5805 5806 5806 5807 5808 5809
5707 5705 5704 5702 5700 5699 5700 5701 5700 5699 5699 5702 5703 5705 5708 5711 5714 5717 5721 5725 5730 5735 5740 5744 5748 5753 5757 5761 5766 5770 5773 5776 5779 5781 5783 5786 5788 5789 5791 5793 5795 5796 5797 5798 5799 5800 5801 5802 5802
5704 5702 5701 5699 5697 5696 5695 5696 5696 5694 5694 5696 5698 5700 5702 5705 5708 5711 5714 5718 5722 5728 5733 5737 5742 5746 5751 5755 5759 5763 5767 5770 5772 5774 5776 5779 5781 5782 5784 5787 5788 5790 5791 5792 5793 5794 5794 5795 5796
5701 5699 5698 5696 5694 5693 5692 5692 5692 5690 5690 5691 5693 5694 5696 5699 5702 5704 5708 5712 5717 5722 5726 5731 5735 5739 5743 5747 5752 5756 5759 5762 5765 5767 5769 5772 5774 5776 5777 5779 5781 5783 5784 5786 5786 5787 5787 5788 5789
5699 5697 5695 5694 5691 5690 5689 5688 5688 5687 5686 5687 5688 5689 5690 5693 5696 5699 5702 5707 5711 5716 5720 5724 5729 5733 5737 5741 5745 5749 5752 5755 5758 5760 5762 5765 5767 5769 5770 5772 5774 5776 5777 5778 5779 5780 5780 5781 5781
5697 5695 5693 5691 5689 5687 5686 5686 5685 5683 5683 5683 5684 5685 5686 5689 5691 5694 5697 5701 5706 5711 5715 5719 5723 5727 5731 5735 5738 5742 5745 5748 5751 5753 5755 5757 5760 5762 5763 5765 5766 5768 5770 5770 5771 5772 5773 5773 5773
5695 5693 5691 5689 5687 5685 5683 5683 5682 5681 5680 5680 5680 5681 5682 5685 5687 5690 5693 5697 5701 5706 5710 5713 5718 5721 5725 5728 5732 5735 5738 5741 5744 5746 5748 5750 5752 5754 5756 5757 5759 5760 5762 5763 5763 5764 5765 5765 5765
5693 5691 5689 5686 5684 5682 5681 5679 5680 5678 5677 5677 5677 5678 5679 5681 5683 5686 5689 5694 5697 5701 5704 5708 5712 5715 5719 5722 5725 5728 5731 5734 5736 5738 5740 5743 5745 5747 5748 5750 5752 5753 5754 5755 5755 5756 5756 5756 5757
5691 5688 5686 5684 5681 5680 5678 5676 5677 5675 5674 5674 5674 5675 5676 5678 5680 5682 5686 5689 5693 5697 5700 5703 5706 5709 5713 5716 5719 5721 5723 5726 5728 5730 5732 5734 5736 5738 5740 5742 5743 5744 5745 5746 5747 5747 5747 5748 5748
5688 5687 5684 5682 5679 5678 5676 5673 5674 5672 5671 5671 5671 5671 5672 5674 5676 5679 5682 5685 5688 5691 5695 5697 5700 5703 5706 5709 5712 5714 5716 5718 5720 5722 5724 5726 5728 5730 5732 5733 5735 5736 5737 5737 5738 5738 5738 5738 5738
5686 5685 5682 5679 5677 5676 5674 5671 5672 5670 5669 5668 5668 5669 5669 5670 5673 5675 5678 5680 5684 5687 5689 5692 5694 5697 5699 5702 5704 5706 5709 5711 5713 5715 5716 5718 5720 5721 5723 5724 5726 5727 5727 5728 5728 5729 5729 5728 5728
5684 5682 5681 5678 5675 5674 5671 5669 5670 5668 5667 5666 5665 5665 5666 5667 5669 5671 5673 5676 5679 5682 5684 5686 5688 5690 5693 5695 5697 5699 5701 5703 5705 5707 5708 5709 5711 5712 5714 5715 5716 5717 5718 5718 5718 5718 5718 5718 5718
5680 5679 5678 5675 5673 5671 5669 5668 5667 5666 5665 5663 5663 5662 5663 5664 5665 5667 5669 5671 5674 5676 5678 5680 5682 5684 5686 5688 5690 5692 5694 5695 5697 5699 5700 5701 5702 5703 5705 5706 5706 5707 5707 5708 5708 5708 5708 5707 5707
5677 5675 5674 5672 5669 5668 5667 5666 5665 5663 5662 5661 5660 5659 5659 5660 5661 5663 5665 5666 5669 5670 5671 5673 5675 5678 5679 5681 5683 5685 5687 5688 5689 5690 5691 5692 5693 5694 5695 5696 5696 5697 5697 5697 5697 5697 5696 5696 5695
5673 5672 5670 5668 5666 5665 5663 5666 5662 5661 5659 5658 5657 5656 5656 5656 5657 5659 5660 5661 5663 5664 5665 5667 5669 5671 5673 5674 5676 5677 5678 5680 5681 5681 5682 5683 5683 5684 5685 5685 5686 5686 5686 5686 5686 5685 5685 5685 5684
5668 5667 5665 5664 5663 5660 5659 5663 5659 5657 5655 5654 5653 5652 5652 5652 5653 5654 5655 5656 5657 5658 5659 5661 5662 5664 5665 5666 5668 5669 5670 5671 5672 5672 5673 5673 5673 5674 5674 5674 5675 5675 5675 5674 5674 5673 5673 5673 5672